User: anonymous   Login
Location: Unspecified
(0.0000°N, 0.0000°E)
Time: 07:37:45
(UTC+02:00)
Language:

CZ-4B R/B - Orbit

View from above orbital plane
View from above orbital plane
View from above satellite
View from above satellite

Ground track
Ground track

The orbit data is extracted from the following two-line orbital elements,

1 33410U 08053C   16180.88899762 -.00000313  00000-0 -17697-4 0  9993
2 33410  97.6811 149.9069 0120209 297.1093  61.7909 14.97760881417890
Epoch (UTC): 28 June 2016 21:20:09
Eccentricity: 0.0120209
inclination: 97.6811°
perigee height: 490 km
apogee height: 657 km
right ascension of ascending node: 149.9069°
argument of perigee: 297.1093°
revolutions per day: 14.97760881
mean anomaly at epoch: 61.7909°
orbit number at epoch: 41789

The dashed part of the orbit path shows where the satellite is in the earth's shadow,  

DLR